User: anonymous   Login
Location: Shell Point
(30.0571°N, 84.2896°W)
Time: 20:21:36
(UTC-05:00)
Language:

Meteor 2-19 Rocket - Orbit

View from above orbital plane
View from above orbital plane
View from above satellite
View from above satellite

Ground track
Ground track

The orbit data is extracted from the following two-line orbital elements,

1 20671U 90057B   15026.51766494  .00000016  00000-0  11404-5 0  1997
2 20671 082.5495 345.7660 0014101 245.4756 252.2935 13.84584652242307
Epoch (UTC): 26 January 2015 12:25:26
Eccentricity: 0.0014101
inclination: 82.5495°
perigee height: 937 km
apogee height: 958 km
right ascension of ascending node: 345.7660°
argument of perigee: 245.4756°
revolutions per day: 13.84584652
mean anomaly at epoch: 252.2935°
orbit number at epoch: 24230

The dashed part of the orbit path shows where the satellite is in the earth's shadow,  

DLR